sat.trackr.live / text

‹ back to catalog

HULIANWANG DIGUI-70

NORAD 65230 · 2025-178C

PAYLOAD ACTIVE UNKNOWN

§ Identity

Operator
Country
PRC
Launch date
2025-08-17
Launch site
TAISC
Launch vehicle
Mass (kg)
RCS (m²)

External: N2YO · Heavens-Above · Gunter

§ Orbital elements

Epoch: 2026-09-20T21:51:07.721856Z

Period
108.73 min
Inclination
86.4994°
Eccentricity
0.0001630
Mean motion
13.24412864 rev/d
Perigee alt
1,166.7 km
Apogee alt
1,169.1 km
Semi-major
7,546.0 km
B*
1.4092e-5
RAAN
341.0628°
Arg perigee
108.6358°
Mean anomaly
251.4953°
Rev number
5,298

§ Raw data

HULIANWANG DIGUI-701 65230U 25178C   26263.91050604  .00000021  00000+0  14092-4 0  99952 65230  86.4994 341.0628 0001630 108.6358 251.4953 13.24412864 52981

JSON: /api/v1/satellites/65230 · /tle

For live sub-satellite position, see the globe view (requires WebGL).

§ Visibility from observer

Set your observer location to see the next 7 days of passes ≥ 10°. The values pass through the URL so the page stays shareable.

No JS? Fill the form by hand. The geolocation button needs JavaScript.